Date String (YYYY-MM-DD hh:mm:ss) UTC,Instrument flags,Ambient pressure (hPa),Sample flow (lpm),Bypass flow (lpm),Sample temperature (°C),Ambient temperature (°C),ASC tube jacket temperature (°C),LED temperature (°C),Box temperature (°C),Sample RH (%),Span deviation,Mass concentration (μg/m³),Mass concentration (μg/m³),Mass concentration (μg/m³)
DateTimeUTC,F1_M11,P_M11,Q1_M11,Q2_M11,T1_M11,T2_M11,T3_M11,T4_M11,T5_M11,U1_M11,ZSPAN_M11,X2_M11,X0_M11,X1_M11
2021-10-24 20:00:00,,0821.0,5.00,0.00,29.1,28.3,00.0,38.1,30.9,09.5,0000.0,0000.89,0001.88,0000.60
2021-10-24 20:01:00,,0820.9,5.00,0.00,29.1,28.3,00.0,38.1,30.9,09.6,0000.0,0000.89,0002.45,0000.61
2021-10-24 20:02:00,,0820.9,5.01,0.00,29.1,28.3,00.0,38.2,30.9,09.5,0000.0,0000.87,0002.37,0000.61
2021-10-24 20:03:00,,0820.9,5.01,0.00,29.1,28.3,00.0,38.2,30.9,09.4,0000.0,0000.85,0002.27,0000.61
2021-10-24 20:04:00,,0821.0,5.01,0.00,29.1,28.4,00.0,38.2,30.9,09.5,0000.0,0000.82,0002.19,0000.61
2021-10-24 20:05:00,,0821.0,4.99,0.00,29.1,28.4,00.0,38.2,30.9,09.5,0000.0,0000.81,0002.15,0000.61
2021-10-24 20:06:00,,0821.0,5.00,0.00,29.2,28.4,00.0,38.2,30.9,09.4,0000.0,0000.79,0002.13,0000.61
2021-10-24 20:07:00,,0821.0,5.01,0.00,29.2,28.4,00.0,38.2,30.9,09.5,0000.0,0000.79,0002.22,0000.61
2021-10-24 20:08:00,,0821.0,5.00,0.00,29.2,28.4,00.0,38.2,31.0,09.4,0000.0,0000.81,0002.26,0000.61
2021-10-24 20:09:00,,0821.1,4.99,0.00,29.2,28.5,00.0,38.2,31.0,09.4,0000.0,0000.83,0003.54,0000.61
2021-10-24 20:10:00,,0821.1,5.00,0.00,29.2,28.5,00.0,38.2,31.0,09.5,0000.0,0000.85,0003.61,0000.62
2021-10-24 20:11:00,,0821.1,5.00,0.00,29.3,28.5,00.0,38.2,31.0,09.5,0000.0,0000.87,0003.67,0000.62
2021-10-24 20:12:00,,0821.0,5.00,0.00,29.3,28.5,00.0,38.3,31.1,09.5,0000.0,0000.88,0002.94,0000.63
2021-10-24 20:13:00,,0821.0,5.00,0.00,29.3,28.6,00.0,38.3,31.1,09.4,0000.0,0000.89,0002.86,0000.63
2021-10-24 20:14:00,,0821.0,4.99,0.00,29.3,28.6,00.0,38.3,31.1,09.1,0000.0,0000.90,0002.88,0000.62
2021-10-24 20:15:00,,0821.0,5.00,0.00,29.3,28.6,00.0,38.3,31.1,09.0,0000.0,0000.91,0002.98,0000.61
2021-10-24 20:16:00,,0821.0,5.00,0.00,29.4,28.6,00.0,38.3,31.1,09.2,0000.0,0000.92,0004.54,0000.61
2021-10-24 20:17:00,,0821.1,5.02,0.00,29.4,28.6,00.0,38.3,31.1,09.2,0000.0,0000.92,0005.21,0000.60
2021-10-24 20:18:00,,0821.1,4.99,0.00,29.4,28.6,00.0,38.4,31.1,09.2,0000.0,0000.91,0005.10,0000.60
2021-10-24 20:19:00,,0821.1,5.00,0.00,29.4,28.6,00.0,38.4,31.1,09.2,0000.0,0000.91,0005.18,0000.59
2021-10-24 20:20:00,,0821.0,5.00,0.00,29.4,28.6,00.0,38.4,31.1,09.3,0000.0,0000.89,0004.02,0000.58
2021-10-24 20:21:00,,0821.1,5.01,0.00,29.4,28.6,00.0,38.4,31.2,09.1,0000.0,0000.82,0004.15,0000.57
2021-10-24 20:22:00,,0821.1,5.01,0.00,29.4,28.6,00.0,38.4,31.2,09.1,0000.0,0000.80,0004.05,0000.55
2021-10-24 20:23:00,,0821.1,5.00,0.00,29.4,28.6,00.0,38.4,31.2,09.1,0000.0,0000.77,0003.94,0000.55
2021-10-24 20:24:00,,0821.1,4.99,0.00,29.5,28.6,00.0,38.4,31.2,09.1,0000.0,0000.77,0003.94,0000.54
2021-10-24 20:25:00,,0821.1,4.99,0.00,29.5,28.6,00.0,38.5,31.2,09.2,0000.0,0000.77,0003.96,0000.56
2021-10-24 20:26:00,,0821.1,5.02,0.00,29.5,28.6,00.0,38.5,31.2,09.2,0000.0,0000.77,0003.89,0000.57
2021-10-24 20:27:00,,0821.2,4.99,0.00,29.5,28.6,00.0,38.5,31.2,09.2,0000.0,0000.77,0002.38,0000.58
2021-10-24 20:28:00,,0821.1,5.01,0.00,29.5,28.6,00.0,38.5,31.2,09.3,0000.0,0000.79,0001.73,0000.58
2021-10-24 20:29:00,,0821.1,5.01,0.00,29.5,28.6,00.0,38.5,31.2,09.2,0000.0,0000.81,0001.76,0000.58
2021-10-24 20:30:00,,0821.2,5.01,0.00,29.5,28.7,00.0,38.5,31.2,09.1,0000.0,0000.81,0002.80,0000.58
2021-10-24 20:31:00,,0821.2,5.00,0.00,29.5,28.7,00.0,38.5,31.2,09.1,0000.0,0000.82,0002.82,0000.59
2021-10-24 20:32:00,,0821.1,4.99,0.00,29.5,28.7,00.0,38.6,31.3,09.2,0000.0,0000.85,0002.68,0000.59
2021-10-24 20:33:00,,0821.1,5.01,0.00,29.6,28.7,00.0,38.6,31.3,09.3,0000.0,0000.87,0002.85,0000.59
2021-10-24 20:34:00,,0821.1,5.00,0.00,29.6,28.7,00.0,38.6,31.3,09.2,0000.0,0000.87,0002.86,0000.59
2021-10-24 20:35:00,,0821.1,5.00,0.00,29.6,28.7,00.0,38.6,31.3,09.2,0000.0,0000.90,0002.91,0000.59
2021-10-24 20:36:00,,0821.1,5.00,0.00,29.6,28.7,00.0,38.6,31.3,09.2,0000.0,0000.93,0002.93,0000.59
2021-10-24 20:37:00,,0821.0,5.00,0.00,29.6,28.7,00.0,38.6,31.3,09.2,0000.0,0000.93,0002.94,0000.58
2021-10-24 20:38:00,,0821.0,5.00,0.00,29.6,28.7,00.0,38.6,31.3,09.3,0000.0,0000.92,0002.91,0000.57
2021-10-24 20:39:00,,0821.1,4.99,0.00,29.6,28.7,00.0,38.6,31.3,09.4,0000.0,0000.92,0002.90,0000.57
2021-10-24 20:40:00,,0821.0,5.00,0.00,29.6,28.8,00.0,38.6,31.3,09.4,0000.0,0000.97,0004.09,0000.59
2021-10-24 20:41:00,,0821.1,5.00,0.00,29.6,28.8,00.0,38.7,31.3,09.3,0000.0,0000.96,0003.49,0000.59
2021-10-24 20:42:00,,0821.0,4.99,0.00,29.6,28.7,00.0,38.7,31.3,09.4,0000.0,0000.94,0003.24,0000.58
2021-10-24 20:43:00,,0821.0,5.00,0.00,29.6,28.7,00.0,38.7,31.3,09.4,0000.0,0000.93,0003.19,0000.59
2021-10-24 20:44:00,,0821.0,5.00,0.00,29.6,28.7,00.0,38.7,31.3,09.4,0000.0,0000.91,0003.03,0000.59
2021-10-24 20:45:00,,0821.0,4.99,0.00,29.6,28.8,00.0,38.7,31.3,09.4,0000.0,0000.96,0003.67,0000.60
2021-10-24 20:46:00,,0821.0,5.00,0.00,29.6,28.8,00.0,38.7,31.3,09.4,0000.0,0000.97,0003.92,0000.60
2021-10-24 20:47:00,,0821.0,5.00,0.00,29.6,28.8,00.0,38.7,31.3,09.3,0000.0,0000.94,0004.08,0000.61
2021-10-24 20:48:00,,0821.0,4.99,0.00,29.6,28.8,00.0,38.7,31.4,09.3,0000.0,0000.94,0004.11,0000.61
2021-10-24 20:49:00,,0821.0,5.00,0.00,29.7,28.9,00.0,38.7,31.4,09.2,0000.0,0000.95,0004.20,0000.62
2021-10-24 20:50:00,,0821.0,5.01,0.00,29.7,28.9,00.0,38.7,31.4,09.3,0000.0,0001.00,0004.30,0000.62
2021-10-24 20:51:00,,0821.1,4.99,0.00,29.7,28.9,00.0,38.7,31.4,09.3,0000.0,0000.97,0003.17,0000.62
2021-10-24 20:52:00,,0821.0,4.99,0.00,29.7,28.8,00.0,38.8,31.4,09.4,0000.0,0000.99,0002.75,0000.61
2021-10-24 20:53:00,,0820.9,5.00,0.00,29.7,28.8,00.0,38.8,31.4,09.5,0000.0,0000.98,0002.72,0000.62
2021-10-24 20:54:00,,0821.0,5.00,0.00,29.7,28.8,00.0,38.8,31.4,09.5,0000.0,0001.02,0002.76,0000.62
2021-10-24 20:55:00,,0821.0,5.00,0.00,29.7,28.9,00.0,38.8,31.4,09.5,0000.0,0001.05,0002.88,0000.63
2021-10-24 20:56:00,,0820.9,4.99,0.00,29.7,28.9,00.0,38.8,31.4,09.5,0000.0,0001.01,0002.33,0000.62
2021-10-24 20:57:00,,0821.0,5.01,0.00,29.7,28.9,00.0,38.8,31.4,09.5,0000.0,0001.00,0002.03,0000.61
2021-10-24 20:58:00,,0821.0,5.00,0.00,29.7,28.9,00.0,38.8,31.4,09.5,0000.0,0000.98,0001.82,0000.61
2021-10-24 20:59:00,,0821.0,4.99,0.00,29.7,28.9,00.0,38.8,31.4,09.4,0000.0,0000.97,0001.80,0000.60
